Estación de Pinto
Ultimos registro cada 15 minutos 57
| N° | Estación | Fecha / Hora | Temperatura | Humedad | Lluvia | Velocidad | Dirección | Radiación | Presion |
| 57 | Pinto | 04-09-2026 14:00 | 12,8 | 61 | 0 | 1,8 | 229 | 686 | 1024 |
| 56 | Pinto | 04-09-2026 13:45 | 12,7 | 62 | 0 | 1,3 | 216 | 703 | 1024,1 |
| 55 | Pinto | 04-09-2026 13:30 | 12,6 | 64 | 0 | 2,2 | 219 | 715 | 1024,3 |
| 54 | Pinto | 04-09-2026 13:15 | 12,2 | 63 | 0 | 2,2 | 192 | 726 | 1024,4 |
| 53 | Pinto | 04-09-2026 13:00 | 11,9 | 62 | 0 | 2,2 | 227 | 731 | 1024,6 |
| 52 | Pinto | 04-09-2026 12:45 | 11,7 | 62 | 0 | 1,8 | 184 | 733 | 1024,8 |
| 51 | Pinto | 04-09-2026 12:30 | 11,3 | 64 | 0 | 1,3 | 246 | 733 | 1024,8 |
| 50 | Pinto | 04-09-2026 12:15 | 11,1 | 64 | 0 | 1,3 | 217 | 728 | 1025,1 |
| 49 | Pinto | 04-09-2026 12:00 | 10,7 | 63 | 0 | 4 | 224 | 717 | 1025,2 |
| 48 | Pinto | 04-09-2026 11:45 | 10,8 | 66 | 0 | 2,2 | 211 | 705 | 1025,1 |
| 47 | Pinto | 04-09-2026 11:30 | 10,3 | 66 | 0 | 1,8 | 215 | 687 | 1025,2 |
| 46 | Pinto | 04-09-2026 11:15 | 9,7 | 68 | 0 | 1,8 | 211 | 664 | 1025 |
| 45 | Pinto | 04-09-2026 11:00 | 9,2 | 70 | 0 | 0 | 229 | 601 | 1025,5 |
| 44 | Pinto | 04-09-2026 10:45 | 8,9 | 74 | 0 | 2,7 | 219 | 615 | 1025,5 |
| 43 | Pinto | 04-09-2026 10:30 | 8,3 | 72 | 0 | 1,8 | 223 | 585 | 1025,5 |
| 42 | Pinto | 04-09-2026 10:15 | 7,7 | 73 | 0 | 2,7 | 158 | 552 | 1025,5 |
| 41 | Pinto | 04-09-2026 10:00 | 7,2 | 73 | 0 | 1,8 | 229 | 515 | 1025,2 |
| 40 | Pinto | 04-09-2026 09:45 | 7 | 73 | 0 | 0,9 | 244 | 478 | 1025,4 |
| 39 | Pinto | 04-09-2026 09:30 | 5,9 | 75 | 0 | 0 | 225 | 434 | 1025,3 |
| 38 | Pinto | 04-09-2026 09:15 | 5,2 | 75 | 0 | 0,4 | 221 | 388 | 1025,1 |
| 37 | Pinto | 04-09-2026 09:00 | 4,3 | 78 | 0 | 1,8 | 213 | 343 | 1025,1 |
| 36 | Pinto | 04-09-2026 08:45 | 3,3 | 79 | 0 | 1,3 | 215 | 295 | 1024,9 |
| 35 | Pinto | 04-09-2026 08:30 | 2,5 | 81 | 0 | 0 | 198 | 243 | 1024,9 |
| 34 | Pinto | 04-09-2026 08:15 | 1,2 | 87 | 0,3 | 0 | 207 | 192 | 1025,1 |
| 33 | Pinto | 04-09-2026 08:00 | -0,7 | 91 | 0 | 0 | 207 | 142 | 1025,1 |
| 32 | Pinto | 04-09-2026 07:45 | -1,7 | 89 | 0 | 0 | 207 | 49 | 1025 |
| 31 | Pinto | 04-09-2026 07:30 | -1,9 | 90 | 0 | 0 | 207 | 16 | 1024,9 |
| 30 | Pinto | 04-09-2026 07:15 | -2,2 | 91 | 0 | 0 | 207 | 12 | 1024,8 |
| 29 | Pinto | 04-09-2026 07:00 | -2,4 | 90 | 0 | 0 | 207 | 5 | 1024,8 |
| 28 | Pinto | 04-09-2026 06:45 | -2,3 | 89 | 0 | 0 | 207 | 0 | 1024,9 |
| 27 | Pinto | 04-09-2026 06:30 | -1,9 | 90 | 0 | 0 | 207 | 0 | 1024,8 |
| 26 | Pinto | 04-09-2026 06:15 | -1,9 | 90 | 0 | 0 | 207 | 0 | 1024,9 |
| 25 | Pinto | 04-09-2026 06:00 | -1,9 | 89 | 0 | 0 | 207 | 0 | 1024,7 |
| 24 | Pinto | 04-09-2026 05:45 | -1,4 | 90 | 0 | 0 | 207 | 0 | 1024,5 |
| 23 | Pinto | 04-09-2026 05:30 | -1,1 | 91 | 0 | 0 | 207 | 0 | 1024,5 |
| 22 | Pinto | 04-09-2026 05:15 | -0,9 | 91 | 0 | 0 | 207 | 0 | 1024,7 |
| 21 | Pinto | 04-09-2026 05:00 | -1,1 | 91 | 0 | 0 | 207 | 0 | 1024,5 |
| 20 | Pinto | 04-09-2026 04:45 | -0,9 | 91 | 0 | 0 | 207 | 0 | 1024,5 |
| 19 | Pinto | 04-09-2026 04:30 | -0,6 | 91 | 0 | 0 | 207 | 0 | 1024,5 |
| 18 | Pinto | 04-09-2026 04:15 | -0,4 | 91 | 0 | 0 | 207 | 0 | 1024,3 |
| 17 | Pinto | 04-09-2026 04:00 | -0,2 | 91 | 0 | 0 | 207 | 0 | 1024,4 |
| 16 | Pinto | 04-09-2026 03:45 | -0,1 | 91 | 0 | 0 | 207 | 0 | 1024,5 |
| 15 | Pinto | 04-09-2026 03:30 | -0,1 | 90 | 0 | 0 | 205 | 0 | 1024,5 |
| 14 | Pinto | 04-09-2026 03:15 | 0,6 | 90 | 0 | 0 | 205 | 0 | 1024,4 |
| 13 | Pinto | 04-09-2026 03:00 | 1,2 | 90 | 0 | 0 | 205 | 0 | 1024,2 |
| 12 | Pinto | 04-09-2026 02:45 | 1,7 | 91 | 0 | 0 | 205 | 0 | 1024,5 |
| 11 | Pinto | 04-09-2026 02:30 | 1,9 | 91 | 0 | 0 | 193 | 0 | 1024,6 |
| 10 | Pinto | 04-09-2026 02:15 | 2,2 | 91 | 0 | 0 | 209 | 0 | 1024,5 |
| 9 | Pinto | 04-09-2026 02:00 | 2,4 | 91 | 0 | 0 | 218 | 0 | 1024,6 |
| 8 | Pinto | 04-09-2026 01:45 | 2,6 | 91 | 0 | 0 | 210 | 0 | 1024,6 |
| 7 | Pinto | 04-09-2026 01:30 | 2,8 | 90 | 0 | 0 | 219 | 0 | 1024,8 |
| 6 | Pinto | 04-09-2026 01:15 | 3 | 90 | 0 | 0,9 | 227 | 0 | 1025 |
| 5 | Pinto | 04-09-2026 01:00 | 3,2 | 90 | 0 | 0 | 222 | 0 | 1024,8 |
| 4 | Pinto | 04-09-2026 00:45 | 3,4 | 89 | 0 | 0,9 | 229 | 0 | 1024,8 |
| 3 | Pinto | 04-09-2026 00:30 | 3,7 | 89 | 0 | 0,4 | 214 | 0 | 1024,8 |
| 2 | Pinto | 04-09-2026 00:15 | 4 | 88 | 0 | 0 | 229 | 0 | 1024,9 |
| 1 | Pinto | 04-09-2026 00:00 | 4,2 | 87 | 0 | 0 | 183 | 0 | 1024,9 |